FLOCK 3P-6

Last updated on Wed Feb 14 2018 16:20:21 GMT+0000 (Coordinated Universal Time)

1 41969U 17008X 18044.72818222 .00002095 00000-0 89629-4 0 9998 2 41969 97.4658 110.2226 0009737 70.1850 290.0436 15.23908925 55133

Satellite not in orbit

FLOCK 3P-6